Plovdiv, Bulgaria

10:40 PM EET on December 06, 2019 (GMT +0200)
Plovdiv

Weather History for LBPD - October, 2019

Change the Weather History Date:

Sunday, October 6, 2019

  Actual Average Record
Temperature  
Mean Temperature 58 °F -  
Max Temperature 69 °F - - ()
Min Temperature 46 °F - - ()
Degree Days  
Heating Degree Days 8    
Growing Degree Days 8 (Base 50)    
Moisture  
Dew Point 45 °F    
Average Humidity 65    
Maximum Humidity 100    
Minimum Humidity 35    
Precipitation  
Precipitation 0.00 in - - ()
Sea Level Pressure  
Sea Level Pressure 29.88 in    
Wind  
Wind Speed 8 mph ()    
Max Wind Speed 25 mph    
Max Gust Speed -    
Visibility 6.2 miles    
Events Rain    
T = Trace of Precipitation, MM = Missing Value Source: Averaged Metar Reports

Daily Weather History Graph

Daily Weather History Graph

Search for Another Location

Airport or City:

Astronomy

Oct. 06, 2019 Rise Set
Actual Time 7:22 AM EEST 6:54 PM EEST
Civil Twilight 6:54 AM EEST 7:22 PM EEST
Nautical Twilight 6:22 AM EEST 7:55 PM EEST
Astronomical Twilight 5:49 AM EEST 8:27 PM EEST
Moon 3:26 PM EEST No Moon Set
Length of Visible Light 12h 27m
Length of Day
11h 32m
First Quarter, 57% of the Moon is Illuminated
Oct 6
First Quarter
Oct 14
Full
Oct 21
Last Quarter
Oct 28
New
Nov 4
First Quarter

Hourly Weather History & Observations

Time (EEST) Temp. Windchill Dew Point Humidity Pressure Visibility Wind Dir Wind Speed Gust Speed Precip Events Conditions
12:00 AM 57.2 °F - 51.8 °F 82% 29.86 in 6.2 mi NE 5.8 mph - N/A Rain Light Rain Showers
12:30 AM 55.4 °F - 50.0 °F 82% 29.86 in 6.2 mi Variable 2.3 mph - N/A Rain Light Rain Showers
1:00 AM 55.4 °F - 51.8 °F 88% 29.86 in 6.2 mi SE 5.8 mph - N/A Rain Light Rain
1:30 AM 53.6 °F - 50.0 °F 88% 29.86 in 6.2 mi ENE 4.6 mph - N/A Rain Light Rain
2:00 AM 53.6 °F - 50.0 °F 88% 29.86 in 6.2 mi NE 4.6 mph - N/A Rain Light Rain
2:30 AM 53.6 °F - 50.0 °F 88% 29.86 in 6.2 mi West 5.8 mph - N/A   Overcast
3:00 AM 53.6 °F - 50.0 °F 88% 29.86 in 6.2 mi WSW 2.3 mph - N/A Rain Light Rain Showers
3:30 AM 53.6 °F - 50.0 °F 88% 29.86 in 6.2 mi NE 3.5 mph - N/A Rain Light Rain Showers
4:00 AM 51.8 °F - 50.0 °F 94% 29.86 in 6.2 mi Calm Calm - N/A   Partly Cloudy
4:30 AM 51.8 °F - 50.0 °F 94% 29.86 in 6.2 mi WSW 3.5 mph - N/A   Unknown
5:00 AM 50.0 °F - 48.2 °F 94% 29.86 in 6.2 mi WSW 5.8 mph - N/A   Scattered Clouds
5:30 AM 48.2 °F - 48.2 °F 100% 29.86 in 6.2 mi SW 5.8 mph - N/A   Unknown
6:00 AM 48.2 °F - 48.2 °F 100% 29.86 in 6.2 mi SSE 2.3 mph - N/A   Unknown
6:30 AM 48.2 °F - 44.6 °F 87% 29.83 in 6.2 mi SSW 5.8 mph - N/A   Unknown
7:00 AM 48.2 °F - 46.4 °F 93% 29.86 in 6.2 mi Variable 2.3 mph - N/A   Unknown
7:30 AM 46.4 °F 44.3 °F 42.8 °F 87% 29.86 in 6.2 mi WSW 4.6 mph - N/A   Unknown
8:00 AM 48.2 °F - 44.6 °F 87% 29.86 in 6.2 mi SW 3.5 mph - N/A   Unknown
8:30 AM 50.0 °F - 48.2 °F 94% 29.86 in 6.2 mi West 6.9 mph - N/A   Unknown
9:00 AM 53.6 °F - 48.2 °F 82% 29.86 in 6.2 mi West 8.1 mph - N/A   Unknown
9:30 AM 55.4 °F - 50.0 °F 82% 29.89 in 6.2 mi WNW 10.4 mph - N/A   Unknown
10:30 AM 60.8 °F - 48.2 °F 63% 29.89 in 6.2 mi West 12.7 mph - N/A   Unknown
11:00 AM 62.6 °F - 46.4 °F 55% 29.89 in 6.2 mi West 18.4 mph - N/A   Unknown
11:30 AM 64.4 °F - 44.6 °F 49% 29.89 in 6.2 mi West 23.0 mph - N/A   Unknown
12:00 PM 66.2 °F - 46.4 °F 49% 29.89 in 6.2 mi WNW 20.7 mph - N/A   Unknown
12:30 PM 66.2 °F - 42.8 °F 43% 29.89 in 6.2 mi West 20.7 mph - N/A   Partly Cloudy
1:00 PM 66.2 °F - 44.6 °F 46% 29.89 in 6.2 mi West 20.7 mph - N/A   Unknown
1:30 PM 68.0 °F - 46.4 °F 46% 29.86 in 6.2 mi WNW 21.9 mph - N/A   Unknown
2:00 PM 68.0 °F - 41.0 °F 37% 29.86 in 6.2 mi WNW 21.9 mph - N/A   Unknown
2:30 PM 69.8 °F - 41.0 °F 35% 29.86 in 6.2 mi WNW 21.9 mph - N/A   Partly Cloudy
3:00 PM 68.0 °F - 41.0 °F 37% 29.86 in 6.2 mi WNW 23.0 mph - N/A   Unknown
3:30 PM 68.0 °F - 41.0 °F 37% 29.86 in 6.2 mi WNW 24.2 mph - N/A   Unknown
4:00 PM 66.2 °F - 42.8 °F 43% 29.89 in 6.2 mi WNW 25.3 mph - N/A   Unknown
4:30 PM 64.4 °F - 41.0 °F 42% 29.89 in 6.2 mi WNW 24.2 mph - N/A   Unknown
5:00 PM 64.4 °F - 41.0 °F 42% 29.89 in 6.2 mi WNW 19.6 mph - N/A   Mostly Cloudy
5:30 PM 64.4 °F - 41.0 °F 42% 29.89 in 6.2 mi WNW 16.1 mph - N/A   Mostly Cloudy
6:00 PM 62.6 °F - 41.0 °F 45% 29.92 in 6.2 mi WNW 15.0 mph - N/A   Scattered Clouds
6:30 PM 60.8 °F - 41.0 °F 48% 29.92 in 6.2 mi West 8.1 mph - N/A   Mostly Cloudy
7:00 PM 60.8 °F - 41.0 °F 48% 29.92 in 6.2 mi WSW 10.4 mph - N/A   Mostly Cloudy
7:30 PM 57.2 °F - 42.8 °F 59% 29.92 in 6.2 mi WSW 8.1 mph - N/A   Partly Cloudy
8:00 PM 55.4 °F - 42.8 °F 63% 29.92 in 6.2 mi SW 6.9 mph - N/A   Unknown
8:30 PM 57.2 °F - 41.0 °F 55% 29.92 in 6.2 mi West 10.4 mph - N/A   Unknown
9:00 PM 57.2 °F - 39.2 °F 51% 29.92 in 6.2 mi West 13.8 mph - N/A   Unknown
9:30 PM 57.2 °F - 37.4 °F 48% 29.95 in 6.2 mi West 11.5 mph - N/A   Partly Cloudy
10:00 PM 57.2 °F - 37.4 °F 48% 29.95 in 6.2 mi West 11.5 mph - N/A   Unknown
10:30 PM 57.2 °F - 37.4 °F 48% 29.95 in 6.2 mi West 10.4 mph - N/A   Partly Cloudy
11:00 PM 55.4 °F - 37.4 °F 51% 29.95 in 6.2 mi West 10.4 mph - N/A   Unknown
11:30 PM 53.6 °F - 37.4 °F 54% 29.95 in 6.2 mi WNW 8.1 mph - N/A   Partly Cloudy